| time (UTC) | temp C | wind direction | speed KPH | gust KPH | rain 1hr cm | rain 24hr cm | rain mn cm | humidity % | barometer mb |
| 20260901030349 | 22 | 50 | 0.0 | 3.2 | 0.00 | 0.00 | 0.00 | 79 | 1021.6 |
| 20260901025343 | 22 | 50 | 1.6 | 4.8 | 0.00 | 0.00 | 0.00 | 79 | 1021.8 |
| 20260901024356 | 22 | 50 | 1.6 | 6.4 | 0.00 | 0.00 | 0.00 | 78 | 1021.8 |
| 20260901023340 | 22 | 98 | 1.6 | 4.8 | 0.00 | 0.00 | 0.00 | 78 | 1021.9 |
| 20260901022340 | 22 | 99 | 1.6 | 4.8 | 0.00 | 0.00 | 0.00 | 78 | 1022.0 |
| 20260901021341 | 22 | 99 | 0.0 | 3.2 | 0.00 | 0.00 | 0.00 | 78 | 1022.3 |
| 20260901020343 | 23 | 100 | 0.0 | 4.8 | 0.00 | 0.00 | 0.00 | 77 | 1022.3 |
| 20260901015339 | 23 | 100 | 0.0 | 1.6 | 0.00 | 0.00 | 0.00 | 77 | 1022.4 |
| 20260901014359 | 23 | 100 | 0.0 | 1.6 | 0.00 | 0.00 | 0.00 | 77 | 1022.4 |
| 20260901013338 | 23 | 100 | 0.0 | 3.2 | 0.00 | 0.00 | 0.00 | 77 | 1022.4 |
| 20260901012349 | 23 | 100 | 0.0 | 6.4 | 0.00 | 0.00 | 0.00 | 76 | 1022.4 |
| 20260901011347 | 23 | 100 | 1.6 | 6.4 | 0.00 | 0.00 | 0.00 | 75 | 1022.5 |
| 20260901010342 | 23 | 100 | 1.6 | 3.2 | 0.00 | 0.00 | 0.00 | 76 | 1022.5 |
| 20260901005359 | 23 | 100 | 0.0 | 3.2 | 0.00 | 0.00 | 0.00 | 76 | 1022.5 |
| 20260901004355 | 23 | 100 | 1.6 | 4.8 | 0.00 | 0.00 | 0.00 | 75 | 1022.5 |
| 20260901003352 | 23 | 100 | 0.0 | 6.4 | 0.00 | 0.00 | 0.00 | 76 | 1022.6 |
| 20260901002345 | 23 | 99 | 3.2 | 6.4 | 0.00 | 0.00 | 0.00 | 75 | 1022.5 |
| 20260901001352 | 23 | 98 | 3.2 | 4.8 | 0.00 | 0.00 | 0.00 | 75 | 1022.5 |
| 20260901000351 | 23 | 98 | 0.0 | 3.2 | 0.00 | 0.00 | 0.00 | 75 | 1022.6 |
| 20260831235340 | 23 | 98 | 0.0 | 3.2 | 0.00 | 0.00 | 0.00 | 75 | 1022.6 |
| 20260831234341 | 23 | 98 | 1.6 | 4.8 | 0.00 | 0.00 | 0.00 | 75 | 1022.7 |
| 20260831233343 | 23 | 97 | 0.0 | 3.2 | 0.00 | 0.00 | 0.00 | 75 | 1022.6 |
| 20260831232357 | 23 | 98 | 3.2 | 4.8 | 0.00 | 0.00 | 0.00 | 75 | 1022.6 |
| 20260831231339 | 24 | 98 | 1.6 | 3.2 | 0.00 | 0.00 | 0.00 | 75 | 1022.5 |
| 20260831230340 | 24 | 98 | 0.0 | 1.6 | 0.00 | 0.00 | 0.00 | 75 | 1022.6 |
| 20260831225357 | 24 | 98 | 0.0 | 4.8 | 0.00 | 0.00 | 0.00 | 75 | 1022.6 |
| 20260831224356 | 24 | 97 | 4.8 | 8.0 | 0.00 | 0.00 | 0.00 | 74 | 1022.7 |
| 20260831223351 | 24 | 90 | 4.8 | 6.4 | 0.00 | 0.00 | 0.00 | 74 | 1022.5 |
| 20260831222343 | 25 | 89 | 1.6 | 4.8 | 0.00 | 0.00 | 0.00 | 74 | 1022.5 |
| 20260831221344 | 25 | 89 | 1.6 | 6.4 | 0.00 | 0.00 | 0.00 | 74 | 1022.4 |
| 20260831220343 | 25 | 89 | 3.2 | 4.8 | 0.00 | 0.00 | 0.00 | 74 | 1022.6 |
| 20260831215340 | 25 | 89 | 0.0 | 4.8 | 0.00 | 0.00 | 0.00 | 74 | 1022.5 |
| 20260831214342 | 25 | 89 | 0.0 | 3.2 | 0.00 | 0.00 | 0.00 | 73 | 1022.4 |
| 20260831213347 | 25 | 89 | 0.0 | 1.6 | 0.00 | 0.00 | 0.00 | 73 | 1022.4 |
| 20260831212339 | 25 | 89 | 0.0 | 1.6 | 0.00 | 0.00 | 0.00 | 73 | 1022.4 |
| 20260831211343 | 25 | 89 | 0.0 | 1.6 | 0.00 | 0.00 | 0.00 | 72 | 1022.2 |
| 20260831210346 | 25 | 89 | 0.0 | 4.8 | 0.00 | 0.00 | 0.00 | 73 | 1022.3 |
| 20260831205358 | 25 | 89 | 0.0 | 4.8 | 0.00 | 0.00 | 0.00 | 72 | 1022.2 |
| 20260831204340 | 25 | 89 | 0.0 | 3.2 | 0.00 | 0.00 | 0.00 | 72 | 1022.2 |
| 20260831203338 | 25 | 89 | 1.6 | 4.8 | 0.00 | 0.00 | 0.00 | 72 | 1022.0 |
| 20260831202357 | 25 | 89 | 0.0 | 3.2 | 0.00 | 0.00 | 0.00 | 71 | 1022.0 |
| 20260831201338 | 25 | 89 | 3.2 | 8.0 | 0.00 | 0.00 | 0.00 | 71 | 1021.9 |
| 20260831200356 | 25 | 90 | 4.8 | 6.4 | 0.00 | 0.00 | 0.00 | 71 | 1021.9 |
| 20260831195349 | 25 | 91 | 3.2 | 9.7 | 0.00 | 0.00 | 0.00 | 71 | 1021.6 |
| 20260831194353 | 25 | 134 | 3.2 | 6.4 | 0.00 | 0.00 | 0.00 | 71 | 1021.7 |
| 20260831193357 | 25 | 137 | 1.6 | 6.4 | 0.00 | 0.00 | 0.00 | 71 | 1021.5 |
| 20260831192355 | 26 | 144 | 1.6 | 6.4 | 0.00 | 0.00 | 0.00 | 70 | 1021.3 |
| 20260831191340 | 26 | 138 | 1.6 | 8.0 | 0.00 | 0.00 | 0.00 | 70 | 1021.2 |
| 20260831190343 | 26 | 172 | 4.8 | 11.3 | 0.00 | 0.00 | 0.00 | 70 | 1021.0 |
| 20260831185342 | 26 | 161 | 6.4 | 12.9 | 0.00 | 0.00 | 0.00 | 68 | 1021.0 |
| 20260831184340 | 26 | 148 | 4.8 | 9.7 | 0.00 | 0.00 | 0.00 | 67 | 1020.9 |
| 20260831183341 | 26 | 118 | 1.6 | 11.3 | 0.00 | 0.00 | 0.00 | 66 | 1020.8 |
| 20260831182358 | 26 | 113 | 3.2 | 14.5 | 0.00 | 0.00 | 0.00 | 65 | 1020.7 |
| 20260831181337 | 26 | 96 | 8.0 | 16.1 | 0.00 | 0.00 | 0.00 | 65 | 1020.6 |
| 20260831180338 | 26 | 238 | 4.8 | 11.3 | 0.00 | 0.00 | 0.00 | 63 | 1020.5 |
| 20260831175358 | 26 | 215 | 4.8 | 12.9 | 0.00 | 0.00 | 0.00 | 63 | 1020.4 |
| 20260831174356 | 26 | 107 | 3.2 | 14.5 | 0.00 | 0.00 | 0.00 | 61 | 1020.3 |
| 20260831173357 | 27 | 103 | 9.7 | 14.5 | 0.00 | 0.00 | 0.00 | 59 | 1020.3 |
| 20260831172348 | 27 | 133 | 9.7 | 16.1 | 0.00 | 0.00 | 0.00 | 58 | 1020.3 |
| 20260831171349 | 27 | 111 | 4.8 | 14.5 | 0.00 | 0.00 | 0.00 | 55 | 1020.3 |
| 20260831170348 | 27 | 156 | 6.4 | 17.7 | 0.00 | 0.00 | 0.00 | 55 | 1020.4 |
| 20260831165403 | 27 | 240 | 6.4 | 17.7 | 0.00 | 0.00 | 0.00 | 56 | 1020.4 |
| 20260831164354 | 27 | 126 | 8.0 | 19.3 | 0.00 | 0.00 | 0.00 | 56 | 1020.5 |
| 20260831163353 | 28 | 171 | 4.8 | 12.9 | 0.00 | 0.00 | 0.00 | 52 | 1020.5 |
| 20260831162342 | 28 | 110 | 3.2 | 14.5 | 0.00 | 0.00 | 0.00 | 52 | 1020.5 |
| 20260831161343 | 28 | 229 | 9.7 | 19.3 | 0.00 | 0.00 | 0.00 | 52 | 1020.6 |
| 20260831160345 | 28 | 97 | 4.8 | 19.3 | 0.00 | 0.00 | 0.00 | 54 | 1020.4 |
| 20260831155341 | 28 | 162 | 6.4 | 16.1 | 0.00 | 0.00 | 0.00 | 55 | 1020.6 |
| 20260831154352 | 28 | 207 | 3.2 | 22.5 | 0.00 | 0.00 | 0.00 | 55 | 1020.6 |
| 20260831153346 | 28 | 260 | 4.8 | 25.7 | 0.00 | 0.00 | 0.00 | 56 | 1020.7 |
| 20260831152340 | 28 | 233 | 6.4 | 16.1 | 0.00 | 0.00 | 0.00 | 58 | 1020.5 |
| 20260831151401 | 28 | 146 | 6.4 | 14.5 | 0.00 | 0.00 | 0.00 | 59 | 1020.5 |
| 20260831150356 | 29 | 220 | 6.4 | 14.5 | 0.00 | 0.00 | 0.00 | 57 | 1020.5 |
| 20260831145345 | 29 | 178 | 4.8 | 19.3 | 0.00 | 0.00 | 0.00 | 58 | 1020.5 |
| 20260831144344 | 29 | 249 | 9.7 | 19.3 | 0.00 | 0.00 | 0.00 | 57 | 1020.4 |
| 20260831143341 | 29 | 198 | 6.4 | 16.1 | 0.00 | 0.00 | 0.00 | 57 | 1020.4 |
| 20260831142341 | 28 | 212 | 8.0 | 25.7 | 0.00 | 0.00 | 0.00 | 58 | 1020.5 |
| 20260831141339 | 29 | 213 | 14.5 | 22.5 | 0.00 | 0.00 | 0.00 | 57 | 1020.4 |
| 20260831140400 | 28 | 235 | 6.4 | 16.1 | 0.00 | 0.00 | 0.00 | 59 | 1020.5 |
| 20260831135350 | 28 | 145 | 3.2 | 16.1 | 0.00 | 0.00 | 0.00 | 59 | 1020.6 |
| 20260831134348 | 28 | 97 | 3.2 | 20.9 | 0.00 | 0.00 | 0.00 | 59 | 1020.5 |
| 20260831133346 | 28 | 156 | 11.3 | 24.1 | 0.00 | 0.00 | 0.00 | 59 | 1020.6 |
| 20260831132340 | 28 | 126 | 9.7 | 20.9 | 0.00 | 0.00 | 0.00 | 59 | 1020.5 |
| 20260831131349 | 28 | 135 | 8.0 | 22.5 | 0.00 | 0.00 | 0.00 | 60 | 1020.5 |
| 20260831130347 | 28 | 113 | 6.4 | 22.5 | 0.00 | 0.00 | 0.00 | 59 | 1020.5 |
| 20260831125404 | 28 | 165 | 9.7 | 22.5 | 0.00 | 0.00 | 0.00 | 60 | 1020.6 |
| 20260831124340 | 28 | 129 | 9.7 | 25.7 | 0.00 | 0.00 | 0.00 | 58 | 1020.7 |
| 20260831123400 | 28 | 134 | 12.9 | 24.1 | 0.00 | 0.00 | 0.00 | 57 | 1020.8 |
| 20260831122355 | 28 | 130 | 11.3 | 24.1 | 0.00 | 0.00 | 0.00 | 56 | 1020.7 |
| 20260831121353 | 28 | 190 | 12.9 | 24.1 | 0.00 | 0.00 | 0.00 | 55 | 1020.7 |
| 20260831120341 | 29 | 92 | 14.5 | 22.5 | 0.00 | 0.00 | 0.00 | 53 | 1020.8 |
| 20260831115355 | 29 | 71 | 8.0 | 22.5 | 0.00 | 0.00 | 0.00 | 53 | 1020.8 |
| 20260831114348 | 29 | 142 | 12.9 | 22.5 | 0.00 | 0.00 | 0.00 | 52 | 1020.8 |
| 20260831113349 | 29 | 168 | 9.7 | 22.5 | 0.00 | 0.00 | 0.00 | 51 | 1020.9 |
| 20260831112400 | 29 | 125 | 8.0 | 19.3 | 0.00 | 0.00 | 0.00 | 52 | 1020.9 |
| 20260831111341 | 29 | 121 | 6.4 | 22.5 | 0.00 | 0.00 | 0.00 | 51 | 1020.8 |
| 20260831110344 | 29 | 110 | 6.4 | 20.9 | 0.00 | 0.00 | 0.00 | 50 | 1021.0 |
| 20260831105353 | 30 | 118 | 8.0 | 17.7 | 0.00 | 0.00 | 0.00 | 48 | 1020.9 |
| 20260831104351 | 29 | 129 | 8.0 | 12.9 | 0.00 | 0.00 | 0.00 | 49 | 1020.9 |
| 20260831103342 | 29 | 201 | 8.0 | 12.9 | 0.00 | 0.00 | 0.00 | 50 | 1021.0 |
| 20260831102353 | 28 | 245 | 3.2 | 11.3 | 0.00 | 0.00 | 0.00 | 51 | 1021.1 |
| 20260831101348 | 28 | 333 | 3.2 | 9.7 | 0.00 | 0.00 | 0.00 | 52 | 1021.0 |
| 20260831100347 | 28 | 214 | 4.8 | 8.0 | 0.00 | 0.00 | 0.00 | 54 | 1021.1 |
| 20260831095339 | 28 | 262 | 9.7 | 14.5 | 0.00 | 0.00 | 0.00 | 54 | 1021.2 |
| 20260831094355 | 27 | 202 | 3.2 | 9.7 | 0.00 | 0.00 | 0.00 | 55 | 1021.2 |
| 20260831093351 | 27 | 226 | 3.2 | 9.7 | 0.00 | 0.00 | 0.00 | 56 | 1021.2 |
| 20260831092344 | 27 | 327 | 6.4 | 9.7 | 0.00 | 0.00 | 0.00 | 57 | 1021.3 |
| 20260831091349 | 27 | 282 | 1.6 | 8.0 | 0.00 | 0.00 | 0.00 | 58 | 1021.2 |
| 20260831090351 | 27 | 24 | 3.2 | 6.4 | 0.00 | 0.00 | 0.00 | 57 | 1021.4 |
| 20260831085349 | 26 | 32 | 0.0 | 6.4 | 0.00 | 0.00 | 0.00 | 56 | 1021.2 |
| 20260831084344 | 26 | 58 | 3.2 | 6.4 | 0.00 | 0.00 | 0.00 | 52 | 1021.1 |
| 20260831083341 | 26 | 48 | 1.6 | 6.4 | 0.00 | 0.00 | 0.00 | 50 | 1021.1 |
| 20260831082354 | 25 | 0 | 1.6 | 6.4 | 0.00 | 0.00 | 0.00 | 50 | 1021.0 |
| 20260831081337 | 24 | 0 | 1.6 | 4.8 | 0.00 | 0.00 | 0.00 | 51 | 1021.0 |
| 20260831080340 | 23 | 0 | 3.2 | 6.4 | 0.00 | 0.00 | 0.00 | 52 | 1021.0 |
| 20260831075359 | 23 | 359 | 1.6 | 6.4 | 0.00 | 0.00 | 0.00 | 53 | 1021.0 |
| 20260831074342 | 23 | 359 | 3.2 | 6.4 | 0.00 | 0.00 | 0.00 | 54 | 1020.9 |
| 20260831073346 | 23 | 359 | 4.8 | 6.4 | 0.00 | 0.00 | 0.00 | 55 | 1020.7 |
| 20260831072345 | 22 | 0 | 1.6 | 6.4 | 0.00 | 0.00 | 0.00 | 57 | 1020.7 |
| 20260831071352 | 22 | 247 | 3.2 | 6.4 | 0.00 | 0.00 | 0.00 | 59 | 1020.7 |
| 20260831070354 | 21 | 235 | 3.2 | 4.8 | 0.00 | 0.00 | 0.00 | 61 | 1020.7 |
| 20260831065352 | 21 | 234 | 0.0 | 1.6 | 0.00 | 0.00 | 0.00 | 63 | 1020.5 |
| 20260831064358 | 21 | 234 | 0.0 | 1.6 | 0.00 | 0.00 | 0.00 | 63 | 1020.5 |
| 20260831063338 | 21 | 234 | 0.0 | 3.2 | 0.00 | 0.00 | 0.00 | 63 | 1020.4 |
| 20260831062354 | 21 | 234 | 0.0 | 3.2 | 0.00 | 0.00 | 0.00 | 64 | 1020.4 |
| 20260831061356 | 20 | 234 | 1.6 | 3.2 | 0.00 | 0.00 | 0.00 | 65 | 1020.1 |
| 20260831060338 | 20 | 234 | 1.6 | 4.8 | 0.00 | 0.00 | 0.00 | 65 | 1019.8 |
| 20260831055356 | 20 | 234 | 0.0 | 3.2 | 0.00 | 0.00 | 0.00 | 64 | 1019.8 |
| 20260831054337 | 19 | 234 | 0.0 | 3.2 | 0.00 | 0.00 | 0.00 | 65 | 1019.8 |
| 20260831053338 | 19 | 234 | 1.6 | 4.8 | 0.00 | 0.00 | 0.00 | 64 | 1019.6 |
| 20260831052354 | 19 | 233 | 1.6 | 3.2 | 0.00 | 0.00 | 0.00 | 63 | 1019.4 |
| 20260831051339 | 19 | 233 | 0.0 | 4.8 | 0.00 | 0.00 | 0.00 | 64 | 1019.4 |
| 20260831050342 | 20 | 233 | 3.2 | 4.8 | 0.00 | 0.00 | 0.00 | 64 | 1019.2 |
| 20260831045340 | 20 | 233 | 0.0 | 0.0 | 0.00 | 0.00 | 0.00 | 65 | 1019.3 |
| 20260831044348 | 20 | 233 | 0.0 | 1.6 | 0.00 | 0.00 | 0.00 | 65 | 1019.3 |
| 20260831043336 | 20 | 233 | 1.6 | 3.2 | 0.00 | 0.00 | 0.00 | 64 | 1019.3 |
| 20260831042352 | 20 | 233 | 1.6 | 3.2 | 0.00 | 0.00 | 0.00 | 62 | 1019.2 |
| 20260831040338 | 20 | 235 | 1.6 | 4.8 | 0.00 | 0.00 | 0.00 | 60 | 1019.2 |
| 20260831035358 | 20 | 233 | 1.6 | 4.8 | 0.00 | 0.00 | 0.00 | 59 | 1019.3 |
| 20260831034356 | 20 | 232 | 1.6 | 4.8 | 0.00 | 0.00 | 0.00 | 61 | 1019.2 |
| 20260831033336 | 20 | 232 | 0.0 | 6.4 | 0.00 | 0.00 | 0.00 | 58 | 1019.3 |
| 20260831032337 | 20 | 232 | 3.2 | 6.4 | 0.00 | 0.00 | 0.00 | 59 | 1019.2 |
| 20260831031356 | 20 | 232 | 1.6 | 6.4 | 0.00 | 0.00 | 0.00 | 59 | 1019.3 |